K9APR Weather Reports


time (UTC)temp
F
wind
direction
speed
knots
gust
knots
rain 1hr
in
rain 24hr
in
rain mn
in
humidity
%
barometer
mb
20260510221249 66 301 5.2 7.0 0.00 0.03 0.03 40 1018.2
20260510220349 67 303 5.2 6.1 0.00 0.03 0.03 41 1018.2
20260510215450 67 0 0.0 0.0 0.00 0.03 0.03 38 1017.9
20260510214552 67 0 0.0 0.0 0.00 0.03 0.03 38 1017.8
20260510213650 67 0 0.0 0.0 0.00 0.03 0.03 38 1018.0
20260510212750 67 0 0.0 0.0 0.00 0.03 0.03 38 1017.7
20260510211850 67 0 0.0 0.0 0.00 0.03 0.03 38 1017.7
20260510210949 67 314 4.3 4.3 0.00 0.03 0.03 38 1017.7
20260510210049 67 304 1.7 7.0 0.00 0.03 0.03 45 1017.4
20260510205149 67 311 1.7 2.6 0.00 0.03 0.03 43 1017.5
20260510204250 67 310 1.7 1.7 0.00 0.03 0.03 41 1017.2
20260510203350 52 0 0.0 0.0 0.00 0.03 0.03 74 1017.0
20260510202450 52 0 0.0 0.0 0.00 0.03 0.03 74 1017.1
20260510201550 52 0 0.0 0.0 0.00 0.03 0.03 74 1017.2
20260510200649 52 0 0.0 0.0 0.00 0.03 0.03 74 1017.2
20260510195749 52 0 0.0 0.0 0.00 0.03 0.03 74 1017.2
20260510194850 52 0 0.0 0.0 0.00 0.03 0.03 74 1017.4
20260510193950 52 0 0.0 0.0 0.00 0.03 0.03 74 1017.3
20260510192150 52 0 0.0 0.0 0.00 0.03 0.03 74 1017.4
20260510191250 52 0 0.0 0.0 0.00 0.03 0.03 74 1017.5
20260510190349 52 0 0.0 0.0 0.00 0.03 0.03 74 1017.7
20260510185450 52 0 0.0 0.0 0.00 0.03 0.03 74 1017.8
20260510184549 52 0 0.0 0.0 0.00 0.03 0.03 74 1017.7
20260510183650 52 0 0.0 0.0 0.00 0.03 0.03 74 1017.7
20260510181849 52 0 0.0 0.0 0.00 0.03 0.03 74 1017.6
20260510180950 52 0 0.0 0.0 0.00 0.03 0.03 74 1017.6
20260510180049 52 0 0.0 0.0 0.00 0.03 0.03 74 1017.6
20260510175149 52 0 0.0 0.0 0.00 0.03 0.03 74 1017.8
20260510174249 52 0 0.0 0.0 0.00 0.03 0.03 74 1017.6
20260510173350 52 0 0.0 0.0 0.00 0.03 0.03 74 1017.9
20260510171550 52 0 0.0 0.0 0.00 0.03 0.03 74 1017.9
20260510170651 52 0 0.0 0.0 0.00 0.03 0.03 74 1017.9
20260510164849 52 0 0.0 0.0 0.00 0.03 0.03 74 1017.2
20260510163949 52 0 0.0 0.0 0.00 0.03 0.03 74 1017.3
20260510163049 52 0 0.0 0.0 0.00 0.03 0.03 74 1017.2
20260510162149 52 0 0.0 0.0 0.00 0.03 0.03 74 1017.3
20260510161249 52 0 0.0 0.0 0.00 0.03 0.03 74 1017.4
20260510160349 52 0 0.0 0.0 0.00 0.03 0.03 74 1017.6
20260510155450 52 0 0.0 0.0 0.00 0.03 0.03 74 1017.5
20260510154552 52 0 0.0 0.0 0.00 0.03 0.03 74 1017.4
20260510153650 52 0 0.0 0.0 0.00 0.03 0.03 74 1017.3
20260510152750 52 0 0.0 0.0 0.00 0.03 0.03 74 1017.2
20260510151849 52 0 0.0 0.0 0.00 0.03 0.03 74 1017.0
20260510150949 52 0 0.0 0.0 0.00 0.03 0.03 74 1017.0
20260510150050 52 0 0.0 0.0 0.00 0.03 0.03 74 1017.0
20260510145151 52 0 0.0 0.0 0.00 0.03 0.03 74 1016.9
20260510144250 52 0 0.0 0.0 0.00 0.03 0.03 74 1016.8
20260510143349 52 0 0.0 0.0 0.00 0.03 0.03 74 1016.7
20260510142449 52 0 0.0 0.0 0.00 0.03 0.03 74 1016.5
20260510141550 52 0 0.0 0.0 0.00 0.03 0.03 74 1016.4
20260510140649 52 0 0.0 0.0 0.00 0.03 0.03 74 1016.4
20260510135749 52 0 0.0 0.0 0.00 0.03 0.03 74 1016.3
20260510134850 52 0 0.0 0.0 0.00 0.03 0.03 74 1016.1
20260510133950 52 0 0.0 0.0 0.00 0.03 0.03 74 1016.0
20260510133049 52 0 0.0 0.0 0.00 0.03 0.03 74 1015.9
20260510132148 52 0 0.0 0.0 0.00 0.03 0.03 74 1015.7
20260510131250 52 0 0.0 0.0 0.00 0.03 0.03 74 1015.5
20260510130350 52 0 0.0 0.0 0.00 0.03 0.03 74 1015.4
20260510125450 52 0 0.0 0.0 0.00 0.03 0.03 74 1015.1
20260510124550 52 0 0.0 0.0 0.00 0.03 0.03 74 1015.0
20260510123651 52 0 0.0 0.0 0.00 0.03 0.03 74 1014.9
20260510122749 52 0 0.0 0.0 0.00 0.03 0.03 74 1014.5
20260510121923 52 0 0.0 0.0 0.00 0.03 0.03 74 1014.5
20260510121851 52 0 0.0 0.0 0.00 0.03 0.03 74 1014.5
20260510121021 52 0 0.0 0.0 0.00 0.03 0.03 74 1014.4
20260510120949 52 0 0.0 0.0 0.00 0.03 0.03 74 1014.4
20260510120048 52 0 0.0 0.0 0.00 0.03 0.03 74 1014.3
20260510115150 52 0 0.0 0.0 0.00 0.03 0.03 74 1014.2
20260510114251 52 0 0.0 0.0 0.00 0.03 0.03 74 1014.0
20260510113349 52 0 0.0 0.0 0.00 0.03 0.03 74 1013.9
20260510112521 52 0 0.0 0.0 0.00 0.03 0.03 74 1013.8
20260510112448 52 0 0.0 0.0 0.00 0.03 0.03 74 1013.8
20260510111549 52 208 0.0 0.0 0.00 0.03 0.03 74 1013.8
20260510110650 52 226 0.0 0.0 0.00 0.03 0.03 74 1013.7
20260510105754 52 248 0.0 0.0 0.00 0.03 0.03 73 1013.6
20260510104849 52 248 0.0 0.0 0.00 0.03 0.03 73 1013.5
20260510103950 52 248 0.0 1.7 0.00 0.03 0.03 72 1013.2
20260510103049 52 216 0.0 0.9 0.00 0.03 0.03 74 1013.0
20260510102149 52 212 0.0 0.9 0.00 0.03 0.03 76 1012.9
20260510101250 53 211 0.0 0.0 0.00 0.03 0.03 74 1012.7
20260510100348 53 212 0.0 0.0 0.00 0.04 0.03 74 1012.8
20260510095449 53 215 0.0 0.0 0.00 0.04 0.03 74 1012.9
20260510094549 53 215 0.0 0.0 0.00 0.05 0.03 72 1013.0
20260510093650 54 245 0.0 0.0 0.00 0.05 0.03 73 1012.9
20260510092748 54 221 0.0 0.0 0.00 0.05 0.03 72 1012.7
20260510091850 54 167 0.0 1.7 0.00 0.05 0.03 73 1012.4
20260510090949 53 243 0.0 0.9 0.00 0.05 0.03 74 1012.2
20260510090155 53 166 0.0 0.0 0.00 0.05 0.03 76 1012.2
20260510090049 53 166 0.0 0.0 0.00 0.05 0.03 76 1012.2
20260510085150 53 314 0.0 0.0 0.00 0.05 0.03 77 1012.0
20260510084249 53 154 0.0 0.0 0.00 0.05 0.03 76 1011.9
20260510083350 53 87 0.0 0.9 0.01 0.05 0.03 77 1011.8
20260510082449 53 90 0.9 1.7 0.01 0.06 0.03 78 1011.5
20260510081550 54 160 0.0 0.0 0.01 0.06 0.03 79 1011.5
20260510080650 54 65 0.0 0.0 0.01 0.06 0.03 79 1011.3
20260510080259 54 64 0.0 0.0 0.01 0.06 0.03 80 1011.1
20260510080200 55 159 0.0 0.0 0.01 0.06 0.03 81 1011.2
20260510075830 54 64 0.0 0.0 0.01 0.06 0.03 80 1011.1
20260510075750 54 64 0.0 0.0 0.01 0.06 0.03 80 1011.1
20260510074851 55 159 0.0 0.0 0.01 0.06 0.03 81 1011.2
20260510073951 55 156 0.0 1.7 0.01 0.07 0.03 82 1011.3
20260510073050 56 317 0.0 0.0 0.00 0.07 0.02 84 1011.2
20260510072149 56 293 0.0 0.9 0.00 0.08 0.02 86 1011.2
20260510071248 57 293 0.0 0.0 0.00 0.08 0.02 87 1010.9
20260510070350 57 293 0.0 0.0 0.00 0.09 0.02 87 1010.8
20260510065448 57 293 0.0 0.0 0.00 0.10 0.02 86 1010.7
20260510064549 58 293 0.0 0.9 0.00 0.10 0.02 85 1010.6
20260510063649 58 293 0.0 0.9 0.00 0.11 0.02 85 1010.8
20260510062750 58 293 0.0 0.9 0.00 0.12 0.02 84 1010.7
20260510061848 59 293 0.0 0.9 0.00 0.13 0.02 84 1010.6
20260510061020 59 293 0.0 0.0 0.00 0.17 0.02 84 1010.6
20260510060949 59 293 0.0 0.0 0.00 0.17 0.02 84 1010.6
20260510060049 59 289 0.0 0.9 0.00 0.18 0.02 84 1010.7
20260510055149 59 323 0.0 0.9 0.00 0.20 0.02 85 1010.7
20260510054250 60 323 0.0 0.0 0.00 0.22 0.02 83 1010.7
20260510053348 60 325 0.0 0.9 0.02 0.26 0.02 83 1010.5
20260510052448 60 300 0.9 0.9 0.02 0.28 0.02 83 1010.3
20260510051549 60 245 0.0 2.6 0.02 0.32 0.02 83 1010.3
20260510050649 60 291 1.7 2.6 0.02 0.34 0.02 82 1010.5
20260510045750 61 299 1.7 2.6 0.00 0.35 0.02 81 1010.3
20260510044850 61 296 4.3 4.3 0.00 0.38 0.02 80 1010.3
20260510043949 62 300 4.3 4.3 0.00 0.40 0.02 78 1010.7
20260510043049 62 305 0.0 0.0 0.00 0.40 0.00 77 1010.1
20260510042149 62 313 1.7 1.7 0.00 0.42 0.00 76 1010.1
20260510041250 62 287 1.7 2.6 0.00 0.43 0.00 76 1009.8
20260510040350 62 282 0.9 1.7 0.00 0.46 0.00 76 1009.9
20260510035449 63 285 0.9 1.7 0.00 0.48 0.46 75 1009.9
20260510034550 63 267 1.7 1.7 0.00 0.50 0.46 75 1009.8
20260510033650 63 281 0.9 2.6 0.00 0.54 0.46 74 1009.8
20260510032750 63 273 1.7 2.6 0.00 0.56 0.46 74 1009.6
20260510031849 63 236 2.6 6.1 0.00 0.59 0.46 73 1009.5
20260510030950 63 262 1.7 2.6 0.00 0.61 0.46 73 1009.5
20260510030048 63 244 0.9 1.7 0.00 0.63 0.46 73 1009.5
20260510025149 63 274 0.9 2.6 0.00 0.65 0.46 73 1009.6
20260510024252 63 252 0.9 2.6 0.00 0.66 0.46 73 1009.6
20260510023351 63 234 1.7 2.6 0.00 0.68 0.46 73 1009.6
20260510022449 63 238 0.9 1.7 0.00 0.70 0.46 72 1009.5
20260510021550 63 241 0.9 2.6 0.00 0.74 0.46 71 1009.5
20260510020648 63 281 0.9 0.9 0.00 0.76 0.46 72 1009.3
20260510015749 64 254 0.0 0.0 0.00 0.78 0.46 70 1009.2
20260510014850 64 217 0.9 2.6 0.00 0.80 0.46 70 1009.1
20260510013949 64 277 1.7 2.6 0.00 0.81 0.46 69 1008.9
20260510013049 64 257 0.0 0.9 0.00 0.82 0.46 69 1008.8
20260510012149 65 242 0.9 1.7 0.00 0.83 0.46 68 1008.6
20260510011250 65 246 1.7 2.6 0.00 0.84 0.46 68 1008.5
20260510010348 65 245 0.9 2.6 0.00 0.85 0.46 68 1008.4
20260510005448 65 247 1.7 2.6 0.00 0.87 0.46 68 1008.2
20260510004550 65 244 0.9 2.6 0.00 0.88 0.46 68 1008.3
20260510003648 66 294 0.9 0.9 0.00 0.89 0.46 68 1008.1
20260510002749 67 279 0.9 1.7 0.00 0.89 0.46 65 1008.0
20260510001849 68 284 1.7 2.6 0.00 0.90 0.46 62 1007.8
20260510000948 69 273 1.7 2.6 0.00 0.91 0.46 60 1007.7
20260510000048 70 265 1.7 4.3 0.00 0.91 0.46 58 1007.6
20260509235150 70 274 4.3 7.0 0.00 0.92 0.46 57 1007.5
20260509234251 69 277 2.6 4.3 0.00 0.92 0.46 58 1007.5
20260509233349 70 277 2.6 2.6 0.00 0.93 0.46 55 1007.4
20260509232450 70 268 2.6 5.2 0.00 0.95 0.46 54 1007.2
20260509231558 70 257 5.2 8.7 0.00 0.95 0.46 55 1007.2
20260509231550 70 257 5.2 8.7 0.00 0.95 0.46 55 1007.2
20260509230649 71 281 4.3 7.0 0.00 0.96 0.46 53 1007.1
20260509225749 71 254 6.1 13.0 0.00 0.96 0.46 53 1007.1
20260509224849 71 259 4.3 7.0 0.00 0.96 0.46 55 1007.0
20260509223949 72 262 4.3 2.6 0.00 0.96 0.46 53 1007.0
20260509223048 72 268 4.3 5.2 0.00 0.96 0.46 52 1006.9
20260509222150 73 279 4.3 7.0 0.00 0.96 0.46 53 1006.9